Location: Phoenix
(33.4480°N, 112.0730°W)
Time: 16:40:06
(UTC-07:00)

Tiangong - Visible Passes

Search period start: 12 August 2022 00:00
Search period end: 22 August 2022 00:00
Orbit: 380 x 386 km, 41.5° (Epoch: 12 August)

Date Brightness Start Highest point End Pass type
(mag) Time Alt. Az. Time Alt. Az. Time Alt. Az.
12 Aug 0.0 05:12:09 11° WSW 05:13:06 12° SW 05:14:18 10° SSW visible
12 Aug 0.0 20:06:58 10° SSE 20:07:43 12° SSE 20:07:43 12° SSE visible
13 Aug -1.6 20:41:57 10° SW 20:44:25 42° S 20:44:25 42° S visible
14 Aug -0.9 19:42:48 10° SSW 19:45:24 24° SE 19:48:01 10° E visible
14 Aug -0.2 21:19:06 10° W 21:20:55 29° WNW 21:20:55 29° WNW visible
15 Aug -2.2 20:19:29 10° WSW 20:22:37 82° NNW 20:24:57 16° ENE visible
15 Aug 1.5 21:57:12 10° WNW 21:57:14 10° WNW 21:57:14 10° WNW visible
16 Aug -0.4 20:57:30 10° W 21:00:18 29° NNW 21:01:11 25° NNE visible
17 Aug -1.0 19:58:04 10° W 20:01:05 44° NNW 20:04:06 10° NE visible
17 Aug 0.9 21:36:05 10° NW 21:37:21 16° NNW 21:37:21 16° NNW visible
18 Aug 0.1 20:36:47 10° WNW 20:39:18 22° N 20:41:18 13° NE visible
19 Aug -0.2 19:37:37 10° WNW 19:40:24 28° NNW 19:43:11 10° NE visible
19 Aug 0.4 21:15:37 10° NW 21:17:35 18° N 21:17:35 18° N visible
20 Aug 0.3 20:16:48 10° NW 20:19:07 19° N 20:21:28 10° NE visible
21 Aug 0.0 20:55:43 10° NW 20:58:08 20° N 20:58:13 20° N visible
